Location: Newark
(51.8900°N, 2.0780°W)
Time: 15:20:43
(UTC+00:00)

Envisat - Pass Details

Date: 28 November 2019
Orbit: 764 x 766 km, 98.1° (Epoch: 06 December)

Event Time Altitude Azimuth Distance (km) Brightness Sun altitude
Rises 07:02:31 0° 15° (NNE) 3,245 6.1 -7.0°
Reaches altitude 10° 07:04:51 10° 18° (NNE) 2,314 5.4 -6.6°
Maximum altitude 07:09:57 73° 103° (ESE) 803 3.4 -5.9°
Drops below altitude 10° 07:15:00 10° 189° (S) 2,297 5.8 -5.2°
Sets 07:17:18 0° 191° (S) 3,219 6.5 -4.9°
